Time,TemperatureF,DewpointF,PressureIn,WindDirection,WindDirectionDegrees,WindSpeedMPH,WindSpeedGustMPH,Humidity,HourlyPrecipIn,Conditions,Clouds,dailyrainin,SoftwareType,DateUTC
2013-10-06 00:01:00,66.6,62.9,27.88,SE,143,0.0,0.0,88,0.00,,,0.00,Weather View 32 v70,2013-10-06 04:01:00,
2013-10-06 00:02:00,66.6,62.9,27.88,SE,143,0.0,0.0,88,0.00,,,0.00,Weather View 32 v70,2013-10-06 04:02:00,
2013-10-06 00:07:00,66.6,63.2,27.88,SE,143,0.0,0.0,89,0.00,,,0.00,Weather View 32 v70,2013-10-06 04:07:00,
2013-10-06 00:12:00,66.7,63.4,27.88,SE,143,0.0,0.0,89,0.00,,,0.00,Weather View 32 v70,2013-10-06 04:12:00,
2013-10-06 00:17:00,66.7,63.4,27.88,SE,143,0.0,0.0,89,0.00,,,0.00,Weather View 32 v70,2013-10-06 04:17:00,
2013-10-06 00:22:00,66.9,63.6,27.88,South,182,0.0,0.0,89,0.00,,,0.00,Weather View 32 v70,2013-10-06 04:22:00,
2013-10-06 00:27:00,66.9,63.9,27.88,South,182,0.0,0.0,90,0.00,,,0.00,Weather View 32 v70,2013-10-06 04:27:00,
2013-10-06 00:32:00,67.1,63.7,27.88,South,182,0.0,0.0,89,0.00,,,0.00,Weather View 32 v70,2013-10-06 04:32:00,
2013-10-06 00:37:00,67.1,64.1,27.88,South,182,0.0,0.0,90,0.00,,,0.00,Weather View 32 v70,2013-10-06 04:37:00,
2013-10-06 00:42:00,67.1,64.1,27.88,SSE,166,0.0,0.0,90,0.00,,,0.00,Weather View 32 v70,2013-10-06 04:42:00,
2013-10-06 00:47:00,67.1,64.1,27.88,SE,138,0.0,0.0,90,0.00,,,0.00,Weather View 32 v70,2013-10-06 04:47:00,
2013-10-06 00:52:00,67.3,64.2,27.85,ESE,120,0.0,0.0,90,0.00,,,0.00,Weather View 32 v70,2013-10-06 04:52:00,
2013-10-06 00:57:00,67.3,64.2,27.85,South,189,0.0,0.0,90,0.00,,,0.00,Weather View 32 v70,2013-10-06 04:57:00,
2013-10-06 01:02:00,67.5,64.4,27.85,SE,146,0.0,0.0,90,0.00,,,0.00,Weather View 32 v70,2013-10-06 05:02:00,
2013-10-06 01:07:00,67.5,64.4,27.85,South,180,0.0,0.0,90,0.00,,,0.00,Weather View 32 v70,2013-10-06 05:07:00,
2013-10-06 01:12:00,67.5,64.7,27.85,South,180,0.0,0.0,91,0.00,,,0.00,Weather View 32 v70,2013-10-06 05:12:00,
2013-10-06 01:17:00,67.6,64.9,27.85,South,180,0.0,0.0,91,0.00,,,0.00,Weather View 32 v70,2013-10-06 05:17:00,
2013-10-06 01:22:00,67.6,64.9,27.85,South,180,0.0,0.0,91,0.00,,,0.00,Weather View 32 v70,2013-10-06 05:22:00,
2013-10-06 01:27:00,67.6,64.9,27.85,South,180,0.0,0.0,91,0.00,,,0.00,Weather View 32 v70,2013-10-06 05:27:00,
2013-10-06 01:32:00,67.6,64.9,27.85,South,180,0.0,0.0,91,0.00,,,0.00,Weather View 32 v70,2013-10-06 05:32:00,
2013-10-06 01:37:00,67.6,64.9,27.85,South,180,0.0,0.0,91,0.00,,,0.00,Weather View 32 v70,2013-10-06 05:37:00,
2013-10-06 01:42:00,67.6,64.9,27.85,South,180,0.0,0.0,91,0.00,,,0.00,Weather View 32 v70,2013-10-06 05:42:00,
2013-10-06 01:47:00,67.6,64.9,27.85,SE,129,0.0,0.0,91,0.00,,,0.00,Weather View 32 v70,2013-10-06 05:47:00,
2013-10-06 01:52:00,67.8,65.1,27.85,SE,144,0.0,0.0,91,0.00,,,0.00,Weather View 32 v70,2013-10-06 05:52:00,
2013-10-06 01:57:00,67.8,65.1,27.85,SSE,163,0.0,0.0,91,0.00,,,0.00,Weather View 32 v70,2013-10-06 05:57:00,
2013-10-06 02:02:00,67.8,65.1,27.85,South,172,0.0,0.0,91,0.00,,,0.00,Weather View 32 v70,2013-10-06 06:02:00,
2013-10-06 02:07:00,67.8,65.1,27.85,South,172,0.0,0.0,91,0.00,,,0.00,Weather View 32 v70,2013-10-06 06:07:00,
2013-10-06 02:12:00,67.8,65.1,27.85,South,172,0.0,0.0,91,0.00,,,0.00,Weather View 32 v70,2013-10-06 06:12:00,
2013-10-06 02:17:00,67.8,65.1,27.85,South,172,0.0,0.0,91,0.00,,,0.00,Weather View 32 v70,2013-10-06 06:17:00,
2013-10-06 02:22:00,67.8,65.1,27.85,South,172,0.0,0.0,91,0.00,,,0.00,Weather View 32 v70,2013-10-06 06:22:00,
2013-10-06 02:27:00,67.8,65.1,27.85,South,172,0.0,0.0,91,0.00,,,0.00,Weather View 32 v70,2013-10-06 06:27:00,
2013-10-06 02:32:00,67.8,65.1,27.85,South,172,0.0,0.0,91,0.00,,,0.00,Weather View 32 v70,2013-10-06 06:32:00,
2013-10-06 02:37:00,67.8,65.1,27.85,South,176,0.0,0.0,91,0.00,,,0.00,Weather View 32 v70,2013-10-06 06:37:00,
2013-10-06 02:42:00,68.0,65.3,27.85,South,183,0.0,0.0,91,0.00,,,0.00,Weather View 32 v70,2013-10-06 06:42:00,
2013-10-06 02:47:00,68.0,65.3,27.85,South,191,0.0,0.0,91,0.00,,,0.00,Weather View 32 v70,2013-10-06 06:47:00,
2013-10-06 02:52:00,68.0,64.9,27.85,South,191,0.0,0.0,90,0.00,,,0.00,Weather View 32 v70,2013-10-06 06:52:00,
2013-10-06 02:57:00,68.0,64.9,27.85,South,191,0.0,0.0,90,0.00,,,0.00,Weather View 32 v70,2013-10-06 06:57:00,
2013-10-06 03:02:00,68.0,64.9,27.85,South,191,0.0,0.0,90,0.00,,,0.00,Weather View 32 v70,2013-10-06 07:02:00,
2013-10-06 03:07:00,68.0,64.9,27.85,South,191,0.0,0.0,90,0.00,,,0.00,Weather View 32 v70,2013-10-06 07:07:00,
2013-10-06 03:12:00,68.0,64.9,27.85,South,191,0.0,0.0,90,0.00,,,0.00,Weather View 32 v70,2013-10-06 07:12:00,
2013-10-06 03:17:00,68.0,64.6,27.85,South,191,0.0,0.0,89,0.00,,,0.00,Weather View 32 v70,2013-10-06 07:17:00,
2013-10-06 03:22:00,68.0,64.6,27.85,South,191,0.0,0.0,89,0.00,,,0.00,Weather View 32 v70,2013-10-06 07:22:00,
2013-10-06 03:27:00,68.0,64.6,27.82,South,191,0.0,0.0,89,0.00,,,0.00,Weather View 32 v70,2013-10-06 07:27:00,
2013-10-06 03:32:00,67.8,64.4,27.82,South,191,0.0,0.0,89,0.00,,,0.00,Weather View 32 v70,2013-10-06 07:32:00,
2013-10-06 03:37:00,67.8,64.1,27.82,South,191,0.0,0.0,88,0.00,,,0.00,Weather View 32 v70,2013-10-06 07:37:00,
2013-10-06 03:42:00,67.8,64.1,27.82,South,191,0.0,0.0,88,0.00,,,0.00,Weather View 32 v70,2013-10-06 07:42:00,
2013-10-06 03:47:00,67.8,64.1,27.82,South,191,0.0,0.0,88,0.00,,,0.00,Weather View 32 v70,2013-10-06 07:47:00,
2013-10-06 03:52:00,67.8,64.1,27.82,South,191,0.0,0.0,88,0.00,,,0.00,Weather View 32 v70,2013-10-06 07:52:00,
2013-10-06 03:57:00,67.8,64.1,27.82,South,191,0.0,0.0,88,0.00,,,0.00,Weather View 32 v70,2013-10-06 07:57:00,
2013-10-06 04:02:00,67.8,63.8,27.82,South,191,0.0,0.0,87,0.00,,,0.00,Weather View 32 v70,2013-10-06 08:02:00,
2013-10-06 04:07:00,67.8,63.8,27.82,South,191,0.0,0.0,87,0.00,,,0.00,Weather View 32 v70,2013-10-06 08:07:00,
2013-10-06 04:12:00,67.8,63.8,27.82,South,191,0.0,0.0,87,0.00,,,0.00,Weather View 32 v70,2013-10-06 08:12:00,
2013-10-06 04:17:00,67.8,63.8,27.82,South,191,0.0,0.0,87,0.00,,,0.00,Weather View 32 v70,2013-10-06 08:17:00,
2013-10-06 04:22:00,67.8,63.5,27.82,South,191,0.0,0.0,86,0.00,,,0.00,Weather View 32 v70,2013-10-06 08:22:00,
2013-10-06 04:27:00,67.8,63.5,27.82,South,190,0.0,0.0,86,0.00,,,0.00,Weather View 32 v70,2013-10-06 08:27:00,
2013-10-06 04:32:00,67.8,63.5,27.82,South,190,0.0,0.0,86,0.00,,,0.00,Weather View 32 v70,2013-10-06 08:32:00,
2013-10-06 04:37:00,67.6,63.3,27.82,South,190,0.0,0.0,86,0.00,,,0.00,Weather View 32 v70,2013-10-06 08:37:00,
2013-10-06 04:42:00,67.6,63.0,27.82,South,190,0.0,0.0,85,0.00,,,0.00,Weather View 32 v70,2013-10-06 08:42:00,
2013-10-06 04:47:00,67.6,63.0,27.82,South,190,0.0,0.0,85,0.00,,,0.00,Weather View 32 v70,2013-10-06 08:47:00,
2013-10-06 04:52:00,67.6,63.0,27.82,South,190,0.0,0.0,85,0.00,,,0.00,Weather View 32 v70,2013-10-06 08:52:00,
2013-10-06 04:57:00,67.6,63.0,27.82,South,190,0.0,0.0,85,0.00,,,0.00,Weather View 32 v70,2013-10-06 08:57:00,
2013-10-06 05:02:00,67.5,62.4,27.82,South,190,0.0,0.0,84,0.00,,,0.00,Weather View 32 v70,2013-10-06 09:02:00,
2013-10-06 05:07:00,67.5,62.4,27.82,South,190,0.0,0.0,84,0.00,,,0.00,Weather View 32 v70,2013-10-06 09:07:00,
2013-10-06 05:09:00,67.5,62.8,27.82,South,190,0.0,0.0,85,0.00,,,0.00,Weather View 32 v70,2013-10-06 09:09:00,
2013-10-06 05:14:00,67.3,62.6,27.82,South,190,0.0,0.0,85,0.00,,,0.00,Weather View 32 v70,2013-10-06 09:14:00,
2013-10-06 05:19:00,67.3,62.6,27.82,South,190,0.0,0.0,85,0.00,,,0.00,Weather View 32 v70,2013-10-06 09:19:00,
2013-10-06 05:24:00,67.3,62.6,27.79,South,191,0.0,0.0,85,0.00,,,0.00,Weather View 32 v70,2013-10-06 09:24:00,
2013-10-06 05:29:00,67.3,62.6,27.79,South,190,0.0,0.0,85,0.00,,,0.00,Weather View 32 v70,2013-10-06 09:29:00,
2013-10-06 05:34:00,67.3,62.6,27.79,South,190,0.0,0.0,85,0.00,,,0.00,Weather View 32 v70,2013-10-06 09:34:00,
2013-10-06 05:39:00,67.1,62.4,27.79,South,190,0.0,0.0,85,0.00,,,0.00,Weather View 32 v70,2013-10-06 09:39:00,
2013-10-06 05:44:00,67.1,62.4,27.79,South,190,0.0,0.0,85,0.00,,,0.00,Weather View 32 v70,2013-10-06 09:44:00,
2013-10-06 05:49:00,67.1,62.4,27.79,SSW,196,0.0,0.0,85,0.00,,,0.00,Weather View 32 v70,2013-10-06 09:49:00,
2013-10-06 05:54:00,67.1,62.8,27.79,SSW,196,0.0,0.0,86,0.00,,,0.00,Weather View 32 v70,2013-10-06 09:54:00,
2013-10-06 05:59:00,67.1,62.8,27.79,SSW,196,0.0,0.0,86,0.00,,,0.00,Weather View 32 v70,2013-10-06 09:59:00,
2013-10-06 06:04:00,67.1,62.8,27.79,SSW,196,0.0,0.0,86,0.00,,,0.00,Weather View 32 v70,2013-10-06 10:04:00,
2013-10-06 06:09:00,67.1,62.8,27.82,SSW,196,0.0,0.0,86,0.00,,,0.00,Weather View 32 v70,2013-10-06 10:09:00,
2013-10-06 06:14:00,67.1,62.8,27.82,SSW,196,0.0,0.0,86,0.00,,,0.00,Weather View 32 v70,2013-10-06 10:14:00,
2013-10-06 06:19:00,67.1,62.8,27.82,SSW,196,0.0,0.0,86,0.00,,,0.00,Weather View 32 v70,2013-10-06 10:19:00,
2013-10-06 06:24:00,67.1,62.4,27.82,SSW,196,0.0,0.0,85,0.00,,,0.00,Weather View 32 v70,2013-10-06 10:24:00,
2013-10-06 06:29:00,67.1,62.4,27.82,SSW,198,0.0,0.0,85,0.00,,,0.00,Weather View 32 v70,2013-10-06 10:29:00,
2013-10-06 06:34:00,67.1,62.1,27.82,SSW,198,0.0,0.0,84,0.00,,,0.00,Weather View 32 v70,2013-10-06 10:34:00,
2013-10-06 06:39:00,67.1,61.7,27.82,SSW,212,0.0,0.0,83,0.00,,,0.00,Weather View 32 v70,2013-10-06 10:39:00,
2013-10-06 06:44:00,67.1,61.4,27.82,SSW,199,0.0,0.0,82,0.00,,,0.00,Weather View 32 v70,2013-10-06 10:44:00,
2013-10-06 06:49:00,67.1,61.4,27.82,SSW,199,0.0,0.0,82,0.00,,,0.00,Weather View 32 v70,2013-10-06 10:49:00,
2013-10-06 06:54:00,67.1,61.1,27.82,SSW,197,0.0,0.0,81,0.00,,,0.00,Weather View 32 v70,2013-10-06 10:54:00,
2013-10-06 06:59:00,67.1,60.7,27.82,SSW,197,0.0,0.0,80,0.00,,,0.00,Weather View 32 v70,2013-10-06 10:59:00,
2013-10-06 07:04:00,67.1,60.7,27.82,SSW,196,0.0,0.0,80,0.00,,,0.00,Weather View 32 v70,2013-10-06 11:04:00,
2013-10-06 07:09:00,67.1,60.7,27.82,SSW,198,0.0,0.0,80,0.00,,,0.00,Weather View 32 v70,2013-10-06 11:09:00,
2013-10-06 07:14:00,66.9,60.5,27.82,SSW,202,0.0,0.0,80,0.00,,,0.00,Weather View 32 v70,2013-10-06 11:14:00,
2013-10-06 07:19:00,66.9,60.2,27.82,SSW,202,0.0,0.0,79,0.00,,,0.00,Weather View 32 v70,2013-10-06 11:19:00,
2013-10-06 07:24:00,66.9,60.2,27.79,SSW,202,0.0,0.0,79,0.00,,,0.00,Weather View 32 v70,2013-10-06 11:24:00,
2013-10-06 07:29:00,66.9,60.2,27.79,SSW,202,0.0,0.0,79,0.00,,,0.00,Weather View 32 v70,2013-10-06 11:29:00,
2013-10-06 07:34:00,66.9,60.2,27.79,SSW,202,0.0,0.0,79,0.00,,,0.00,Weather View 32 v70,2013-10-06 11:34:00,
2013-10-06 07:39:00,66.7,60.4,27.79,SSW,203,0.0,0.0,80,0.00,,,0.00,Weather View 32 v70,2013-10-06 11:39:00,
2013-10-06 07:44:00,66.7,60.4,27.79,SSW,202,0.0,0.0,80,0.00,,,0.00,Weather View 32 v70,2013-10-06 11:44:00,
2013-10-06 07:49:00,66.7,60.4,27.79,SSW,202,0.0,0.0,80,0.00,,,0.00,Weather View 32 v70,2013-10-06 11:49:00,
2013-10-06 07:54:00,66.6,60.2,27.79,SSW,202,0.0,0.0,80,0.00,,,0.00,Weather View 32 v70,2013-10-06 11:54:00,
2013-10-06 07:59:00,66.6,60.5,27.79,SSW,202,0.0,0.0,81,0.00,,,0.00,Weather View 32 v70,2013-10-06 11:59:00,
2013-10-06 08:04:00,66.6,60.5,27.79,SSW,202,0.0,0.0,81,0.00,,,0.00,Weather View 32 v70,2013-10-06 12:04:00,
2013-10-06 08:09:00,66.6,60.5,27.79,SSW,202,0.0,0.0,81,0.00,,,0.00,Weather View 32 v70,2013-10-06 12:09:00,
2013-10-06 08:14:00,66.6,60.5,27.79,SSW,202,0.0,0.0,81,0.00,,,0.00,Weather View 32 v70,2013-10-06 12:14:00,
2013-10-06 08:19:00,66.6,60.5,27.79,SSW,202,0.0,0.0,81,0.00,,,0.00,Weather View 32 v70,2013-10-06 12:19:00,
2013-10-06 08:24:00,66.6,60.5,27.79,SSW,202,0.0,0.0,81,0.00,,,0.00,Weather View 32 v70,2013-10-06 12:24:00,
2013-10-06 08:29:00,66.6,60.5,27.79,SSW,197,0.0,0.0,81,0.00,,,0.00,Weather View 32 v70,2013-10-06 12:29:00,
2013-10-06 08:34:00,66.6,60.2,27.79,SSW,197,0.0,0.0,80,0.00,,,0.00,Weather View 32 v70,2013-10-06 12:34:00,
2013-10-06 08:39:00,66.6,60.2,27.79,SSW,197,0.0,0.0,80,0.00,,,0.00,Weather View 32 v70,2013-10-06 12:39:00,
2013-10-06 08:44:00,66.4,60.0,27.79,SW,218,0.0,0.0,80,0.00,,,0.00,Weather View 32 v70,2013-10-06 12:44:00,
2013-10-06 08:49:00,66.4,59.6,27.79,SSW,207,0.0,0.0,79,0.00,,,0.00,Weather View 32 v70,2013-10-06 12:49:00,
2013-10-06 08:54:00,66.6,59.8,27.79,SSW,207,0.0,0.0,79,0.00,,,0.00,Weather View 32 v70,2013-10-06 12:54:00,
2013-10-06 08:59:00,66.6,59.8,27.79,SSW,208,0.0,0.0,79,0.00,,,0.00,Weather View 32 v70,2013-10-06 12:59:00,
2013-10-06 09:04:00,66.6,59.5,27.79,SSW,206,0.0,0.0,78,0.00,,,0.00,Weather View 32 v70,2013-10-06 13:04:00,
2013-10-06 09:09:00,66.7,59.6,27.79,SSW,206,0.0,0.0,78,0.00,,,0.00,Weather View 32 v70,2013-10-06 13:09:00,
2013-10-06 09:14:00,66.7,59.6,27.79,SSW,206,0.0,0.0,78,0.00,,,0.00,Weather View 32 v70,2013-10-06 13:14:00,
2013-10-06 09:19:00,66.7,59.6,27.79,South,176,0.0,0.0,78,0.00,,,0.00,Weather View 32 v70,2013-10-06 13:19:00,
2013-10-06 09:24:00,66.7,59.6,27.79,South,184,0.0,0.0,78,0.00,,,0.00,Weather View 32 v70,2013-10-06 13:24:00,
2013-10-06 09:29:00,66.7,59.6,27.79,South,190,0.0,0.0,78,0.00,,,0.00,Weather View 32 v70,2013-10-06 13:29:00,
2013-10-06 09:34:00,66.7,59.6,27.79,South,190,0.0,0.0,78,0.00,,,0.00,Weather View 32 v70,2013-10-06 13:34:00,
2013-10-06 09:39:00,66.7,59.3,27.79,SSE,152,0.0,0.0,77,0.00,,,0.00,Weather View 32 v70,2013-10-06 13:39:00,
2013-10-06 09:44:00,66.7,58.9,27.79,SSW,194,0.0,0.0,76,0.00,,,0.00,Weather View 32 v70,2013-10-06 13:44:00,
2013-10-06 09:49:00,66.7,58.9,27.79,SSW,197,0.0,0.0,76,0.00,,,0.00,Weather View 32 v70,2013-10-06 13:49:00,
2013-10-06 09:54:00,66.7,58.9,27.79,SSW,204,0.0,0.0,76,0.00,,,0.00,Weather View 32 v70,2013-10-06 13:54:00,
2013-10-06 09:59:00,66.7,58.9,27.79,SSW,202,0.0,0.0,76,0.00,,,0.00,Weather View 32 v70,2013-10-06 13:59:00,
2013-10-06 10:04:00,66.9,59.1,27.79,SSW,202,0.0,0.0,76,0.00,,,0.00,Weather View 32 v70,2013-10-06 14:04:00,
2013-10-06 10:09:00,66.9,59.1,27.76,SSW,197,0.0,0.0,76,0.00,,,0.00,Weather View 32 v70,2013-10-06 14:09:00,
2013-10-06 10:14:00,67.1,58.9,27.76,SSW,193,0.0,0.0,75,0.00,,,0.00,Weather View 32 v70,2013-10-06 14:14:00,
2013-10-06 10:19:00,67.5,58.9,27.76,SSW,193,0.0,0.0,74,0.00,,,0.00,Weather View 32 v70,2013-10-06 14:19:00,
2013-10-06 10:24:00,67.6,58.6,27.76,SSW,203,0.0,0.0,73,0.00,,,0.00,Weather View 32 v70,2013-10-06 14:24:00,
2013-10-06 10:29:00,67.8,58.4,27.76,SSW,203,0.0,0.0,72,0.00,,,0.00,Weather View 32 v70,2013-10-06 14:29:00,
2013-10-06 10:34:00,68.0,57.8,27.76,SSW,203,0.0,0.0,70,0.00,,,0.00,Weather View 32 v70,2013-10-06 14:34:00,
2013-10-06 10:39:00,68.0,57.8,27.76,South,186,0.0,0.0,70,0.00,,,0.00,Weather View 32 v70,2013-10-06 14:39:00,
2013-10-06 10:44:00,68.0,57.0,27.76,SSW,211,0.0,0.0,68,0.00,,,0.00,Weather View 32 v70,2013-10-06 14:44:00,
2013-10-06 10:49:00,68.2,57.6,27.76,SSW,199,0.0,0.0,69,0.00,,,0.00,Weather View 32 v70,2013-10-06 14:49:00,
2013-10-06 10:54:00,68.0,57.4,27.76,SSW,199,0.0,0.0,69,0.00,,,0.00,Weather View 32 v70,2013-10-06 14:54:00,
2013-10-06 10:59:00,68.0,56.2,27.76,SSW,195,0.0,0.0,66,0.00,,,0.00,Weather View 32 v70,2013-10-06 14:59:00,
2013-10-06 11:04:00,68.0,56.2,27.76,SSW,197,0.0,0.0,66,0.00,,,0.00,Weather View 32 v70,2013-10-06 15:04:00,
2013-10-06 11:09:00,68.2,56.8,27.76,SSW,197,0.0,0.0,67,0.00,,,0.00,Weather View 32 v70,2013-10-06 15:09:00,
2013-10-06 11:14:00,68.4,56.5,27.76,SSW,204,0.0,0.0,66,0.00,,,0.00,Weather View 32 v70,2013-10-06 15:14:00,
2013-10-06 11:19:00,68.5,56.7,27.76,SSW,204,0.0,0.0,66,0.00,,,0.00,Weather View 32 v70,2013-10-06 15:19:00,
2013-10-06 11:24:00,68.9,56.2,27.73,SSW,195,0.0,0.0,64,0.00,,,0.00,Weather View 32 v70,2013-10-06 15:24:00,
2013-10-06 11:29:00,68.9,55.3,27.73,South,189,0.0,0.0,62,0.00,,,0.00,Weather View 32 v70,2013-10-06 15:29:00,
2013-10-06 11:34:00,68.9,54.9,27.73,SSW,208,0.0,0.0,61,0.00,,,0.00,Weather View 32 v70,2013-10-06 15:34:00,
2013-10-06 11:39:00,68.9,55.3,27.73,West,277,0.0,0.0,62,0.00,,,0.00,Weather View 32 v70,2013-10-06 15:39:00,
2013-10-06 11:44:00,68.5,54.5,27.73,South,189,0.0,0.0,61,0.00,,,0.00,Weather View 32 v70,2013-10-06 15:44:00,
2013-10-06 11:49:00,68.5,54.5,27.73,SSW,199,0.0,0.0,61,0.00,,,0.00,Weather View 32 v70,2013-10-06 15:49:00,
2013-10-06 11:54:00,68.5,55.0,27.76,SW,217,0.0,0.0,62,0.00,,,0.00,Weather View 32 v70,2013-10-06 15:54:00,
2013-10-06 11:59:00,68.5,55.0,27.76,SSW,194,0.0,0.0,62,0.00,,,0.00,Weather View 32 v70,2013-10-06 15:59:00,
2013-10-06 12:04:00,68.4,53.9,27.76,SSW,209,0.0,0.0,60,0.00,,,0.00,Weather View 32 v70,2013-10-06 16:04:00,
2013-10-06 12:09:00,68.2,54.2,27.76,SSW,201,0.0,0.0,61,0.00,,,0.00,Weather View 32 v70,2013-10-06 16:09:00,
2013-10-06 12:14:00,68.2,54.6,27.76,SSW,209,0.0,0.0,62,0.00,,,0.00,Weather View 32 v70,2013-10-06 16:14:00,
2013-10-06 12:19:00,68.2,54.2,27.76,SSW,201,0.0,0.0,61,0.00,,,0.00,Weather View 32 v70,2013-10-06 16:19:00,
2013-10-06 12:24:00,68.0,54.0,27.76,SSW,207,0.0,0.0,61,0.00,,,0.00,Weather View 32 v70,2013-10-06 16:24:00,
2013-10-06 12:29:00,67.8,54.3,27.76,SSW,192,0.0,0.0,62,0.00,,,0.00,Weather View 32 v70,2013-10-06 16:29:00,
2013-10-06 12:34:00,67.6,54.1,27.76,SSW,199,0.0,0.0,62,0.00,,,0.00,Weather View 32 v70,2013-10-06 16:34:00,
2013-10-06 12:39:00,67.6,54.1,27.73,SSW,195,0.0,0.0,62,0.00,,,0.00,Weather View 32 v70,2013-10-06 16:39:00,
2013-10-06 12:44:00,67.6,54.1,27.73,SSE,149,0.0,0.0,62,0.00,,,0.00,Weather View 32 v70,2013-10-06 16:44:00,
2013-10-06 12:49:00,67.6,54.6,27.73,South,187,0.0,0.0,63,0.00,,,0.00,Weather View 32 v70,2013-10-06 16:49:00,
2013-10-06 12:54:00,67.6,54.6,27.76,SSW,203,0.0,0.0,63,0.00,,,0.00,Weather View 32 v70,2013-10-06 16:54:00,
2013-10-06 12:59:00,67.8,54.3,27.76,SSW,205,0.0,0.0,62,0.00,,,0.00,Weather View 32 v70,2013-10-06 16:59:00,
2013-10-06 13:04:00,68.0,53.6,27.76,SSW,199,0.0,0.0,60,0.00,,,0.00,Weather View 32 v70,2013-10-06 17:04:00,
2013-10-06 13:09:00,68.2,54.2,27.76,SSW,206,0.0,0.0,61,0.00,,,0.00,Weather View 32 v70,2013-10-06 17:09:00,
2013-10-06 13:14:00,68.4,54.8,27.76,SSW,197,0.0,0.0,62,0.00,,,0.00,Weather View 32 v70,2013-10-06 17:14:00,
2013-10-06 13:19:00,68.2,54.2,27.76,South,191,0.0,0.0,61,0.00,,,0.00,Weather View 32 v70,2013-10-06 17:19:00,
2013-10-06 13:24:00,68.0,54.5,27.73,SSW,200,0.0,0.0,62,0.00,,,0.00,Weather View 32 v70,2013-10-06 17:24:00,
2013-10-06 13:29:00,68.0,54.0,27.73,SSE,147,0.0,0.0,61,0.00,,,0.00,Weather View 32 v70,2013-10-06 17:29:00,
2013-10-06 13:34:00,68.2,54.2,27.73,South,188,0.0,0.0,61,0.00,,,0.00,Weather View 32 v70,2013-10-06 17:34:00,
2013-10-06 13:39:00,68.2,53.7,27.73,SSW,192,0.0,0.0,60,0.00,,,0.00,Weather View 32 v70,2013-10-06 17:39:00,
2013-10-06 13:44:00,68.4,54.3,27.73,SSW,208,0.0,0.0,61,0.00,,,0.00,Weather View 32 v70,2013-10-06 17:44:00,
2013-10-06 13:49:00,68.7,54.2,27.73,SSW,199,0.0,0.0,60,0.00,,,0.00,Weather View 32 v70,2013-10-06 17:49:00,
2013-10-06 13:54:00,69.1,52.7,27.73,SSW,194,0.0,0.0,56,0.00,,,0.00,Weather View 32 v70,2013-10-06 17:54:00,
2013-10-06 13:59:00,69.1,53.6,27.73,South,189,0.0,0.0,58,0.00,,,0.00,Weather View 32 v70,2013-10-06 17:59:00,
2013-10-06 14:04:00,68.9,53.5,27.73,SSW,193,0.0,0.0,58,0.00,,,0.00,Weather View 32 v70,2013-10-06 18:04:00,
2013-10-06 14:09:00,68.9,53.5,27.70,SSW,196,0.0,0.0,58,0.00,,,0.00,Weather View 32 v70,2013-10-06 18:09:00,
2013-10-06 14:14:00,68.7,53.3,27.70,SSW,195,0.0,0.0,58,0.00,,,0.00,Weather View 32 v70,2013-10-06 18:14:00,
2013-10-06 14:19:00,68.7,52.8,27.70,SSW,199,0.0,0.0,57,0.00,,,0.00,Weather View 32 v70,2013-10-06 18:19:00,
2013-10-06 14:24:00,68.7,52.3,27.70,SSW,198,0.0,0.0,56,0.00,,,0.00,Weather View 32 v70,2013-10-06 18:24:00,
2013-10-06 14:29:00,68.9,53.0,27.70,SSW,192,0.0,0.0,57,0.00,,,0.00,Weather View 32 v70,2013-10-06 18:29:00,
2013-10-06 14:34:00,68.7,52.3,27.70,SSW,199,0.0,0.0,56,0.00,,,0.00,Weather View 32 v70,2013-10-06 18:34:00,
2013-10-06 14:39:00,68.5,53.6,27.70,SSW,198,0.0,0.0,59,0.00,,,0.00,Weather View 32 v70,2013-10-06 18:39:00,
2013-10-06 14:44:00,68.4,53.9,27.70,South,190,0.0,0.0,60,0.00,,,0.00,Weather View 32 v70,2013-10-06 18:44:00,
2013-10-06 14:49:00,68.2,54.2,27.70,South,190,0.0,0.0,61,0.00,,,0.00,Weather View 32 v70,2013-10-06 18:49:00,
2013-10-06 14:54:00,68.2,55.1,27.70,South,181,0.0,0.0,63,0.00,,,0.00,Weather View 32 v70,2013-10-06 18:54:00,
2013-10-06 14:59:00,67.6,55.8,27.70,SSW,207,0.0,0.0,66,0.00,,,0.00,Weather View 32 v70,2013-10-06 18:59:00,
2013-10-06 15:04:00,67.5,56.5,27.70,SSW,207,0.0,0.0,68,0.00,,,0.00,Weather View 32 v70,2013-10-06 19:04:00,
2013-10-06 15:09:00,67.3,57.1,27.70,South,183,0.0,0.0,70,0.00,,,0.00,Weather View 32 v70,2013-10-06 19:09:00,
2013-10-06 15:14:00,67.3,57.1,27.70,South,183,0.0,0.0,70,0.00,,,0.00,Weather View 32 v70,2013-10-06 19:14:00,
2013-10-06 15:19:00,67.3,57.1,27.70,SSW,205,0.0,0.0,70,0.00,,,0.00,Weather View 32 v70,2013-10-06 19:19:00,
2013-10-06 15:24:00,67.1,57.4,27.67,SSW,205,0.0,0.0,71,0.00,,,0.00,Weather View 32 v70,2013-10-06 19:24:00,
2013-10-06 15:29:00,67.1,57.4,27.67,SSW,205,0.0,0.0,71,0.00,,,0.00,Weather View 32 v70,2013-10-06 19:29:00,
2013-10-06 15:34:00,67.1,57.7,27.67,SSW,197,0.0,0.0,72,0.00,,,0.00,Weather View 32 v70,2013-10-06 19:34:00,
2013-10-06 15:39:00,66.2,54.9,27.67,NW,318,0.0,5.0,67,0.00,,,0.00,Weather View 32 v70,2013-10-06 19:39:00,
2013-10-06 15:44:00,65.3,54.0,27.67,NNE,21,0.0,5.0,67,0.00,,,0.00,Weather View 32 v70,2013-10-06 19:44:00,
2013-10-06 15:49:00,64.6,53.8,27.67,NNW,338,0.0,5.0,68,0.00,,,0.00,Weather View 32 v70,2013-10-06 19:49:00,
2013-10-06 15:54:00,64.0,53.6,27.67,WNW,284,0.0,5.0,69,0.00,,,0.00,Weather View 32 v70,2013-10-06 19:54:00,
2013-10-06 15:59:00,63.9,53.9,27.67,WNW,287,0.0,5.0,70,0.00,,,0.00,Weather View 32 v70,2013-10-06 19:59:00,
2013-10-06 16:04:00,63.7,54.5,27.67,NNE,31,0.0,5.0,72,0.00,,,0.00,Weather View 32 v70,2013-10-06 20:04:00,
2013-10-06 16:09:00,63.5,54.7,27.70,NNE,32,0.0,5.0,73,0.00,,,0.00,Weather View 32 v70,2013-10-06 20:09:00,
2013-10-06 16:14:00,63.3,54.9,27.70,WSW,257,0.0,5.0,74,0.00,,,0.00,Weather View 32 v70,2013-10-06 20:14:00,
2013-10-06 16:19:00,63.1,55.1,27.70,WSW,253,0.0,5.0,75,0.00,,,0.00,Weather View 32 v70,2013-10-06 20:19:00,
2013-10-06 16:24:00,62.8,54.7,27.67,NW,323,0.0,5.0,75,0.00,,,0.00,Weather View 32 v70,2013-10-06 20:24:00,
2013-10-06 16:29:00,62.2,54.2,27.67,WNW,295,0.0,5.0,75,0.00,,,0.00,Weather View 32 v70,2013-10-06 20:29:00,
2013-10-06 16:34:00,61.7,53.7,27.67,North,353,0.0,5.0,75,0.00,,,0.00,Weather View 32 v70,2013-10-06 20:34:00,
2013-10-06 16:39:00,61.2,53.5,27.70,SW,236,0.0,5.0,76,0.00,,,0.00,Weather View 32 v70,2013-10-06 20:39:00,
2013-10-06 16:44:00,60.4,52.5,27.70,NW,311,0.0,6.0,75,0.00,,,0.00,Weather View 32 v70,2013-10-06 20:44:00,
2013-10-06 16:49:00,59.9,51.9,27.70,NW,319,0.0,6.0,75,0.04,,,0.04,Weather View 32 v70,2013-10-06 20:49:00,
2013-10-06 16:54:00,59.7,52.5,27.70,ENE,77,0.0,6.0,77,0.04,,,0.04,Weather View 32 v70,2013-10-06 20:54:00,
2013-10-06 16:59:00,59.5,52.7,27.70,West,277,0.0,6.0,78,0.04,,,0.04,Weather View 32 v70,2013-10-06 20:59:00,
2013-10-06 17:05:00,59.2,52.3,27.70,WSW,239,0.0,6.0,78,0.04,,,0.04,Weather View 32 v70,2013-10-06 21:05:00,
2013-10-06 17:10:00,59.2,52.3,27.70,NW,312,0.0,6.0,78,0.08,,,0.08,Weather View 32 v70,2013-10-06 21:10:00,
2013-10-06 17:15:00,59.0,52.5,27.70,WNW,284,0.0,6.0,79,0.08,,,0.08,Weather View 32 v70,2013-10-06 21:15:00,
2013-10-06 17:20:00,59.0,52.5,27.70,NW,317,0.0,6.0,79,0.08,,,0.08,Weather View 32 v70,2013-10-06 21:20:00,
2013-10-06 17:25:00,58.6,52.1,27.70,WNW,302,0.0,6.0,79,0.08,,,0.08,Weather View 32 v70,2013-10-06 21:25:00,
2013-10-06 17:30:00,58.5,52.0,27.70,South,174,0.0,6.0,79,0.08,,,0.08,Weather View 32 v70,2013-10-06 21:30:00,
2013-10-06 17:34:00,58.5,52.3,27.70,WSW,258,0.0,6.0,80,0.08,,,0.12,Weather View 32 v70,2013-10-06 21:34:00,
2013-10-06 17:39:00,58.5,52.3,27.70,NW,318,0.0,6.0,80,0.12,,,0.12,Weather View 32 v70,2013-10-06 21:39:00,
2013-10-06 17:44:00,58.5,52.6,27.70,ESE,107,0.0,4.0,81,0.12,,,0.12,Weather View 32 v70,2013-10-06 21:44:00,
2013-10-06 17:49:00,58.5,52.6,27.70,ESE,107,0.0,4.0,81,0.16,,,0.20,Weather View 32 v70,2013-10-06 21:49:00,
2013-10-06 17:54:00,58.5,52.6,27.70,ESE,107,0.0,4.0,81,0.16,,,0.20,Weather View 32 v70,2013-10-06 21:54:00,
2013-10-06 17:59:00,58.6,52.8,27.70,ESE,107,0.0,4.0,81,0.16,,,0.20,Weather View 32 v70,2013-10-06 21:59:00,
2013-10-06 18:04:00,58.6,52.8,27.70,ESE,107,0.0,4.0,81,0.16,,,0.20,Weather View 32 v70,2013-10-06 22:04:00,
2013-10-06 18:09:00,58.8,53.0,27.70,ESE,107,0.0,4.0,81,0.12,,,0.20,Weather View 32 v70,2013-10-06 22:09:00,
2013-10-06 18:15:00,58.8,53.0,27.70,ESE,107,0.0,4.0,81,0.12,,,0.24,Weather View 32 v70,2013-10-06 22:15:00,
2013-10-06 18:20:00,58.6,52.8,27.70,NNE,29,0.0,4.0,81,0.16,,,0.24,Weather View 32 v70,2013-10-06 22:20:00,
2013-10-06 18:25:00,58.6,52.8,27.70,NNE,29,0.0,4.0,81,0.16,,,0.24,Weather View 32 v70,2013-10-06 22:25:00,
2013-10-06 18:30:00,58.6,52.8,27.70,NNE,29,0.0,4.0,81,0.31,,,0.24,Weather View 32 v70,2013-10-06 22:30:00,
2013-10-06 18:35:00,58.6,53.1,27.70,NNE,29,0.0,4.0,82,0.12,,,0.24,Weather View 32 v70,2013-10-06 22:35:00,
2013-10-06 18:40:00,58.5,52.6,27.70,NW,325,0.0,2.0,81,0.16,,,0.28,Weather View 32 v70,2013-10-06 22:40:00,
2013-10-06 18:45:00,58.5,53.0,27.70,WNW,295,3.0,3.0,82,0.16,,,0.28,Weather View 32 v70,2013-10-06 22:45:00,
2013-10-06 18:50:00,58.5,53.0,27.70,North,0,0.0,3.0,82,0.08,,,0.28,Weather View 32 v70,2013-10-06 22:50:00,
2013-10-06 18:55:00,58.3,52.8,27.70,NNW,338,0.0,3.0,82,0.08,,,0.28,Weather View 32 v70,2013-10-06 22:55:00,
2013-10-06 19:00:00,58.1,52.6,27.70,NW,325,0.0,4.0,82,0.08,,,0.28,Weather View 32 v70,2013-10-06 23:00:00,
2013-10-06 19:05:00,57.9,52.4,27.70,NNW,335,0.0,4.0,82,0.08,,,0.28,Weather View 32 v70,2013-10-06 23:05:00,
2013-10-06 19:10:00,57.9,52.4,27.70,NNW,344,0.0,4.0,82,0.08,,,0.28,Weather View 32 v70,2013-10-06 23:10:00,
2013-10-06 19:15:00,57.9,52.4,27.70,NW,323,0.0,4.0,82,0.04,,,0.28,Weather View 32 v70,2013-10-06 23:15:00,
2013-10-06 19:20:00,57.6,52.1,27.70,NNW,338,0.0,4.0,82,0.04,,,0.28,Weather View 32 v70,2013-10-06 23:20:00,
2013-10-06 19:25:00,57.6,52.4,27.70,WNW,294,0.0,4.0,83,0.04,,,0.28,Weather View 32 v70,2013-10-06 23:25:00,
2013-10-06 19:30:00,57.4,52.2,27.70,SE,127,0.0,4.0,83,0.04,,,0.28,Weather View 32 v70,2013-10-06 23:30:00,
2013-10-06 19:35:00,57.2,52.1,27.70,WNW,300,0.0,4.0,83,0.04,,,0.28,Weather View 32 v70,2013-10-06 23:35:00,
2013-10-06 19:40:00,57.0,51.6,27.73,West,264,0.0,5.0,82,0.00,,,0.28,Weather View 32 v70,2013-10-06 23:40:00,
2013-10-06 19:45:00,56.7,51.2,27.73,SSW,198,0.0,5.0,82,0.00,,,0.28,Weather View 32 v70,2013-10-06 23:45:00,
2013-10-06 19:50:00,56.5,50.7,27.73,South,185,0.0,5.0,81,0.00,,,0.28,Weather View 32 v70,2013-10-06 23:50:00,
2013-10-06 19:55:00,56.3,50.5,27.73,WSW,240,0.0,5.0,81,0.00,,,0.28,Weather View 32 v70,2013-10-06 23:55:00,
2013-10-06 20:00:00,56.1,50.7,27.73,WSW,253,0.0,5.0,82,0.00,,,0.28,Weather View 32 v70,2013-10-07 00:00:00,
2013-10-06 20:05:00,56.1,50.7,27.73,ESE,109,3.0,5.0,82,0.00,,,0.28,Weather View 32 v70,2013-10-07 00:05:00,
2013-10-06 20:10:00,55.9,50.5,27.73,SW,222,0.0,5.0,82,0.00,,,0.28,Weather View 32 v70,2013-10-07 00:10:00,
2013-10-06 20:15:00,55.9,50.5,27.73,West,276,4.0,5.0,82,0.00,,,0.28,Weather View 32 v70,2013-10-07 00:15:00,
2013-10-06 20:20:00,55.8,50.3,27.73,ESE,114,0.0,5.0,82,0.00,,,0.28,Weather View 32 v70,2013-10-07 00:20:00,
2013-10-06 20:25:00,55.8,50.3,27.70,SSE,164,0.0,5.0,82,0.00,,,0.28,Weather View 32 v70,2013-10-07 00:25:00,
2013-10-06 20:30:00,55.6,50.2,27.70,SSW,194,0.0,5.0,82,0.00,,,0.28,Weather View 32 v70,2013-10-07 00:30:00,
2013-10-06 20:35:00,55.4,50.0,27.70,SSW,194,0.0,5.0,82,0.00,,,0.28,Weather View 32 v70,2013-10-07 00:35:00,
2013-10-06 20:40:00,55.4,50.0,27.73,SSW,194,0.0,4.0,82,0.00,,,0.28,Weather View 32 v70,2013-10-07 00:40:00,
2013-10-06 20:45:00,55.6,50.2,27.73,SSW,194,0.0,4.0,82,0.00,,,0.28,Weather View 32 v70,2013-10-07 00:45:00,
2013-10-06 20:50:00,55.6,50.2,27.73,SSW,194,0.0,4.0,82,0.00,,,0.28,Weather View 32 v70,2013-10-07 00:50:00,
2013-10-06 20:55:00,55.4,50.0,27.73,SSW,194,0.0,4.0,82,0.00,,,0.28,Weather View 32 v70,2013-10-07 00:55:00,
2013-10-06 21:00:00,55.4,50.0,27.73,SSW,194,0.0,4.0,82,0.00,,,0.28,Weather View 32 v70,2013-10-07 01:00:00,
2013-10-06 21:05:00,55.4,50.0,27.73,SSW,194,0.0,4.0,82,0.00,,,0.28,Weather View 32 v70,2013-10-07 01:05:00,
2013-10-06 21:10:00,55.4,50.0,27.73,SSW,194,0.0,4.0,82,0.00,,,0.28,Weather View 32 v70,2013-10-07 01:10:00,
2013-10-06 21:15:00,55.4,50.0,27.73,SSW,194,0.0,4.0,82,0.00,,,0.28,Weather View 32 v70,2013-10-07 01:15:00,
2013-10-06 21:20:00,55.2,49.8,27.73,SSW,194,0.0,2.0,82,0.00,,,0.28,Weather View 32 v70,2013-10-07 01:20:00,
2013-10-06 21:25:00,55.2,50.1,27.73,SSW,194,0.0,2.0,83,0.00,,,0.28,Weather View 32 v70,2013-10-07 01:25:00,
2013-10-06 21:30:00,55.2,50.1,27.73,SSW,194,0.0,0.0,83,0.00,,,0.28,Weather View 32 v70,2013-10-07 01:30:00,
2013-10-06 21:35:00,55.0,50.0,27.73,SSW,194,0.0,0.0,83,0.00,,,0.28,Weather View 32 v70,2013-10-07 01:35:00,
2013-10-06 21:40:00,54.9,49.8,27.73,SSW,194,0.0,0.0,83,0.00,,,0.28,Weather View 32 v70,2013-10-07 01:40:00,
2013-10-06 21:45:00,54.9,49.8,27.73,SSW,194,0.0,0.0,83,0.00,,,0.28,Weather View 32 v70,2013-10-07 01:45:00,
2013-10-06 21:50:00,54.7,49.6,27.73,SSW,194,0.0,0.0,83,0.00,,,0.28,Weather View 32 v70,2013-10-07 01:50:00,
2013-10-06 21:55:00,54.5,49.4,27.73,SSW,194,0.0,0.0,83,0.00,,,0.28,Weather View 32 v70,2013-10-07 01:55:00,
2013-10-06 22:00:00,54.3,49.3,27.73,SSW,194,0.0,0.0,83,0.00,,,0.28,Weather View 32 v70,2013-10-07 02:00:00,
2013-10-06 22:05:00,54.3,49.6,27.73,SSW,194,0.0,0.0,84,0.00,,,0.28,Weather View 32 v70,2013-10-07 02:05:00,
2013-10-06 22:10:00,54.3,49.6,27.73,SSW,194,0.0,0.0,84,0.00,,,0.28,Weather View 32 v70,2013-10-07 02:10:00,
2013-10-06 22:15:00,54.1,49.4,27.73,SSW,194,0.0,0.0,84,0.00,,,0.28,Weather View 32 v70,2013-10-07 02:15:00,
2013-10-06 22:20:00,54.1,49.4,27.73,SSW,194,0.0,0.0,84,0.00,,,0.28,Weather View 32 v70,2013-10-07 02:20:00,
2013-10-06 22:25:00,54.1,49.4,27.73,SSW,194,0.0,0.0,84,0.00,,,0.28,Weather View 32 v70,2013-10-07 02:25:00,
2013-10-06 22:30:00,54.3,49.9,27.73,SSW,195,0.0,0.0,85,0.00,,,0.28,Weather View 32 v70,2013-10-07 02:30:00,
2013-10-06 22:35:00,54.1,49.7,27.73,SSW,194,0.0,0.0,85,0.00,,,0.28,Weather View 32 v70,2013-10-07 02:35:00,
2013-10-06 22:39:00,54.1,49.7,27.79,SSW,194,0.0,0.0,85,0.00,,,0.28,Weather View 32 v70,2013-10-07 02:39:00,
2013-10-06 22:44:00,54.1,49.7,27.79,SSW,194,0.0,0.0,85,0.00,,,0.28,Weather View 32 v70,2013-10-07 02:44:00,
2013-10-06 22:49:00,54.1,49.7,27.79,SSW,194,0.0,0.0,85,0.00,,,0.28,Weather View 32 v70,2013-10-07 02:49:00,
2013-10-06 22:54:00,54.0,49.5,27.79,South,180,0.0,0.0,85,0.00,,,0.28,Weather View 32 v70,2013-10-07 02:54:00,
2013-10-06 22:59:00,54.0,49.5,27.79,South,180,0.0,0.0,85,0.00,,,0.28,Weather View 32 v70,2013-10-07 02:59:00,
2013-10-06 23:04:00,54.0,49.5,27.79,South,180,0.0,0.0,85,0.00,,,0.28,Weather View 32 v70,2013-10-07 03:04:00,
2013-10-06 23:09:00,54.0,49.5,27.79,South,180,0.0,0.0,85,0.00,,,0.28,Weather View 32 v70,2013-10-07 03:09:00,
2013-10-06 23:14:00,54.0,49.9,27.79,South,180,0.0,0.0,86,0.00,,,0.28,Weather View 32 v70,2013-10-07 03:14:00,
2013-10-06 23:19:00,54.0,49.9,27.79,South,180,0.0,0.0,86,0.00,,,0.28,Weather View 32 v70,2013-10-07 03:19:00,
2013-10-06 23:24:00,54.0,49.9,27.76,South,180,0.0,0.0,86,0.00,,,0.28,Weather View 32 v70,2013-10-07 03:24:00,
2013-10-06 23:29:00,54.0,49.9,27.76,South,180,0.0,0.0,86,0.00,,,0.28,Weather View 32 v70,2013-10-07 03:29:00,
2013-10-06 23:35:00,54.0,49.9,27.76,South,180,0.0,0.0,86,0.00,,,0.28,Weather View 32 v70,2013-10-07 03:35:00,
2013-10-06 23:40:00,53.8,49.7,27.79,South,180,0.0,0.0,86,0.00,,,0.28,Weather View 32 v70,2013-10-07 03:40:00,
2013-10-06 23:45:00,53.8,49.7,27.79,South,180,0.0,0.0,86,0.00,,,0.28,Weather View 32 v70,2013-10-07 03:45:00,
2013-10-06 23:50:00,53.8,49.7,27.79,South,180,0.0,0.0,86,0.00,,,0.28,Weather View 32 v70,2013-10-07 03:50:00,
2013-10-06 23:55:00,53.6,49.5,27.79,South,180,0.0,0.0,86,0.00,,,0.28,Weather View 32 v70,2013-10-07 03:55:00,